SILO ALERT LOG
| Silo ID | Alert Type | Alert Message | Silo Type | Points | Depth (mm) | Strength | Temperature (°C) | Humidity (%) | Height (mm) | Volume (㎥) | Weight (t) | Flag | Time |
|---|---|---|---|---|---|---|---|---|---|---|---|---|---|
| WJWJR01 | Humidity | 습도센서 측정값이 80% 초과 | 평 | 50 | 6819 | 1784 | 22.5 | 83.1 | 820 | 92.758 | 58.642 | 0 | 2026-06-04 04:25:48.000 |
| WJWJR01 | Humidity | 습도센서 측정값이 80% 초과 | 평 | 49 | 6770 | 1818 | 22.9 | 82.6 | 869 | 98.343 | 62.173 | 0 | 2026-06-04 03:25:50.000 |
| WJWJR01 | Humidity | 습도센서 측정값이 80% 초과 | 평 | 50 | 6787 | 1839 | 23.2 | 82.4 | 852 | 96.406 | 60.948 | 0 | 2026-06-04 02:25:49.000 |
| WJWJR01 | Humidity | 습도센서 측정값이 80% 초과 | 평 | 49 | 6809 | 1870 | 23.6 | 81.9 | 830 | 93.936 | 59.386 | 0 | 2026-06-04 01:25:56.000 |
| WJWJR01 | Humidity | 습도센서 측정값이 80% 초과 | 평 | 49 | 6842 | 1863 | 24 | 80.9 | 797 | 90.159 | 56.998 | 0 | 2026-06-04 00:25:49.000 |
| WJWJR05 | Humidity | 습도센서 측정값이 80% 초과 | 평 | 81 | 5757 | 2337 | 22.9 | 81.1 | 1972 | 223.042 | 141.007 | 0 | 2026-06-03 09:25:59.000 |
| WJWJR05 | Humidity | 습도센서 측정값이 80% 초과 | 평 | 79 | 5742 | 2283 | 21.7 | 80.5 | 1987 | 224.768 | 142.098 | 0 | 2026-06-03 08:25:55.000 |
| WJWJR01 | Humidity | 습도센서 측정값이 80% 초과 | 평 | 50 | 6790 | 1883 | 21.7 | 82.2 | 849 | 96.114 | 60.763 | 0 | 2026-06-03 08:25:48.000 |
| WJWJR05 | Humidity | 습도센서 측정값이 80% 초과 | 평 | 79 | 5718 | 2315 | 21.5 | 80.7 | 2011 | 227.491 | 143.82 | 0 | 2026-06-03 07:25:58.000 |
| WJWJR01 | Humidity | 습도센서 측정값이 80% 초과 | 평 | 49 | 6820 | 1855 | 20.6 | 85 | 819 | 92.652 | 58.575 | 0 | 2026-06-03 07:25:52.000 |
| WJWJR05 | Humidity | 습도센서 측정값이 80% 초과 | 평 | 77 | 5771 | 2328 | 21.6 | 80.5 | 1958 | 221.539 | 140.057 | 0 | 2026-06-03 06:25:55.000 |
| WJWJR05 | Humidity | 습도센서 측정값이 80% 초과 | 평 | 81 | 5738 | 2268 | 21.9 | 80.2 | 1991 | 225.249 | 142.402 | 0 | 2026-06-03 05:25:56.000 |
| WJWJR01 | Humidity | 습도센서 측정값이 80% 초과 | 평 | 49 | 6807 | 1799 | 20.7 | 85.3 | 832 | 94.181 | 59.541 | 0 | 2026-06-03 05:25:51.000 |
| WJWJR01 | Humidity | 습도센서 측정값이 80% 초과 | 평 | 48 | 6858 | 1836 | 21.1 | 85 | 781 | 88.338 | 55.847 | 0 | 2026-06-03 04:25:53.000 |
| WJWJR01 | Humidity | 습도센서 측정값이 80% 초과 | 평 | 48 | 6844 | 1891 | 21.5 | 84.3 | 795 | 90.02 | 56.91 | 0 | 2026-06-03 03:25:50.000 |
| WJWJR01 | Humidity | 습도센서 측정값이 80% 초과 | 평 | 49 | 6783 | 1858 | 22 | 83.6 | 856 | 96.861 | 61.236 | 0 | 2026-06-03 02:25:49.000 |
| WJWJR01 | Humidity | 습도센서 측정값이 80% 초과 | 평 | 49 | 6768 | 1885 | 22.6 | 82.7 | 871 | 98.533 | 62.293 | 0 | 2026-06-03 01:25:51.000 |
| WJWJR01 | Humidity | 습도센서 측정값이 80% 초과 | 평 | 48 | 6817 | 1836 | 23.2 | 81.7 | 822 | 93.064 | 58.835 | 0 | 2026-06-03 00:25:47.000 |
| WJWJR05 | Humidity | 습도센서 측정값이 80% 초과 | 평 | 80 | 5620 | 2259 | 21.1 | 80.1 | 2109 | 238.522 | 150.794 | 0 | 2026-06-02 09:25:57.000 |
| WJWJR01 | Humidity | 습도센서 측정값이 80% 초과 | 평 | 50 | 6816 | 1825 | 21.6 | 80.5 | 823 | 93.178 | 58.907 | 0 | 2026-06-02 09:25:45.000 |
[첫 페이지] [52] [53] [54] [55] 56 [57] [58] [59] [60] [마지막 페이지]